DFSCM EDDG-EDDV

Flight info

Callsign DFSCM
Flight time 0h 52m
Altitude 7000
Route OSNAD1W OSNAD M170 ZEPHE T463 NIE NIE1R
Aircraft C208/L-SDFGR/C

Departure

Time 2026-04-20 17:35
Airport Münster Osnabrück Airport (EDDG)

Arrival

Time 2026-04-20 18:28
Airport Hannover Airport (EDDV)
Time Latitude Longitude Altitude Speed Heading
2026-04-20 16:56 52.13106 7.68319 168 ft 0 kts 90°
2026-04-20 17:31 52.13106 7.68322 168 ft 1 kts 90°
2026-04-20 17:31 52.13105 7.68358 168 ft 5 kts 90°
2026-04-20 17:31 52.13132 7.68391 168 ft 6 kts 348°
2026-04-20 17:32 52.13173 7.68368 168 ft 7 kts 340°
2026-04-20 17:32 52.13227 7.68339 168 ft 10 kts 353°
2026-04-20 17:32 52.13277 7.68421 168 ft 12 kts 71°
2026-04-20 17:32 52.13306 7.68554 169 ft 12 kts 72°
2026-04-20 17:33 52.13337 7.68694 167 ft 14 kts 74°
2026-04-20 17:33 52.13369 7.68856 165 ft 16 kts 70°
2026-04-20 17:33 52.13405 7.69023 164 ft 16 kts 71°
2026-04-20 17:33 52.13441 7.69196 164 ft 16 kts 72°
2026-04-20 17:34 52.13475 7.69352 166 ft 14 kts 72°
2026-04-20 17:34 52.13509 7.69523 166 ft 22 kts 71°
2026-04-20 17:34 52.13571 7.69809 164 ft 27 kts 72°
2026-04-20 17:34 52.13659 7.70030 164 ft 22 kts 14°
2026-04-20 17:35 52.13766 7.69926 165 ft 19 kts 270°
2026-04-20 17:35 52.13686 7.69513 170 ft 77 kts 252°
2026-04-20 17:35 52.13448 7.68514 452 ft 104 kts 251°
2026-04-20 17:35 52.13146 7.67385 855 ft 113 kts 251°
2026-04-20 17:36 52.12860 7.66095 1237 ft 128 kts 256°
2026-04-20 17:36 52.12386 7.64855 1670 ft 140 kts 214°
2026-04-20 17:36 52.11459 7.64381 2099 ft 143 kts 182°
2026-04-20 17:36 52.10460 7.64315 2548 ft 144 kts 174°
2026-04-20 17:37 52.09563 7.64936 2918 ft 140 kts 141°
2026-04-20 17:37 52.08797 7.65882 3334 ft 136 kts 132°
2026-04-20 17:37 52.08121 7.66863 3740 ft 125 kts 130°
2026-04-20 17:37 52.07496 7.67775 4148 ft 117 kts 130°
2026-04-20 17:38 52.06903 7.68629 4564 ft 111 kts 130°
2026-04-20 17:38 52.06382 7.69506 4965 ft 104 kts 116°
2026-04-20 17:38 52.06110 7.70557 5345 ft 99 kts 99°
2026-04-20 17:38 52.06090 7.71655 5726 ft 97 kts 81°
2026-04-20 17:39 52.06302 7.72695 6114 ft 97 kts 71°
2026-04-20 17:39 52.06549 7.73702 6504 ft 97 kts 72°
2026-04-20 17:39 52.06801 7.74715 6880 ft 97 kts 72°
2026-04-20 17:39 52.07052 7.75732 7208 ft 101 kts 72°
2026-04-20 17:40 52.07345 7.76938 7211 ft 125 kts 72°
2026-04-20 17:40 52.07687 7.78327 7215 ft 138 kts 71°
2026-04-20 17:40 52.08054 7.79812 7226 ft 144 kts 71°
2026-04-20 17:40 52.08432 7.81340 7221 ft 147 kts 71°
2026-04-20 17:41 52.08816 7.82887 7224 ft 148 kts 71°
2026-04-20 17:41 52.09201 7.84441 7217 ft 149 kts 71°
2026-04-20 17:41 52.09582 7.85987 7209 ft 136 kts 71°
2026-04-20 17:41 52.09890 7.87226 7195 ft 103 kts 72°
2026-04-20 17:42 52.10169 7.88352 7227 ft 119 kts 72°
2026-04-20 17:42 52.10496 7.89688 7218 ft 134 kts 72°
2026-04-20 17:42 52.10849 7.91116 7220 ft 140 kts 71°
2026-04-20 17:42 52.11217 7.92611 7213 ft 144 kts 71°
2026-04-20 17:43 52.11590 7.94127 7216 ft 145 kts 71°
2026-04-20 17:43 52.11967 7.95655 7213 ft 146 kts 71°
2026-04-20 17:43 52.12343 7.97180 7219 ft 144 kts 71°
2026-04-20 17:43 52.12713 7.98688 7213 ft 143 kts 71°
2026-04-20 17:44 52.13080 8.00184 7214 ft 142 kts 71°
2026-04-20 17:44 52.13446 8.01674 7213 ft 141 kts 71°
2026-04-20 17:44 52.13810 8.03157 7209 ft 141 kts 71°
2026-04-20 17:44 52.14173 8.04638 7214 ft 141 kts 71°
2026-04-20 17:45 52.14537 8.06123 7209 ft 141 kts 72°
2026-04-20 17:45 52.14901 8.07607 7210 ft 141 kts 72°
2026-04-20 17:45 52.15263 8.09091 7205 ft 141 kts 71°
2026-04-20 17:45 52.15626 8.10575 7204 ft 141 kts 71°
2026-04-20 17:46 52.15989 8.12064 7208 ft 141 kts 71°
2026-04-20 17:46 52.16354 8.13553 7206 ft 142 kts 71°
2026-04-20 17:46 52.16719 8.15052 7201 ft 142 kts 71°
2026-04-20 17:46 52.17084 8.16551 7206 ft 143 kts 72°
2026-04-20 17:47 52.17451 8.18055 7198 ft 142 kts 72°
2026-04-20 17:47 52.17816 8.19554 7203 ft 142 kts 71°
2026-04-20 17:47 52.18180 8.21052 7201 ft 142 kts 72°
2026-04-20 17:47 52.18544 8.22548 7197 ft 142 kts 72°
2026-04-20 17:48 52.18909 8.24049 7203 ft 142 kts 71°
2026-04-20 17:48 52.19272 8.25545 7199 ft 142 kts 71°
2026-04-20 17:48 52.19636 8.27042 7202 ft 142 kts 71°
2026-04-20 17:48 52.20171 8.28404 7186 ft 145 kts 52°
2026-04-20 17:49 52.20982 8.29414 7182 ft 150 kts 35°
2026-04-20 17:49 52.21906 8.30199 7193 ft 149 kts 35°
2026-04-20 17:49 52.22822 8.30993 7192 ft 149 kts 35°
2026-04-20 17:49 52.23740 8.31790 7182 ft 150 kts 34°
2026-04-20 17:50 52.24661 8.32590 7183 ft 150 kts 34°
2026-04-20 17:50 52.25575 8.33381 7182 ft 150 kts 34°
2026-04-20 17:50 52.26500 8.34184 7184 ft 151 kts 34°
2026-04-20 17:50 52.27425 8.34988 7183 ft 151 kts 34°
2026-04-20 17:51 52.28352 8.35793 7179 ft 150 kts 34°
2026-04-20 17:51 52.29274 8.36596 7179 ft 150 kts 34°
2026-04-20 17:51 52.30191 8.37394 7187 ft 149 kts 34°
2026-04-20 17:51 52.31113 8.38192 7182 ft 150 kts 34°
2026-04-20 17:52 52.32037 8.38998 7183 ft 151 kts 34°
2026-04-20 17:52 52.32960 8.39801 7184 ft 150 kts 34°
2026-04-20 17:52 52.33880 8.40602 7182 ft 150 kts 34°
2026-04-20 17:52 52.34803 8.41407 7183 ft 150 kts 34°
2026-04-20 17:53 52.35721 8.42209 7184 ft 150 kts 34°
2026-04-20 17:53 52.36641 8.43010 7188 ft 150 kts 34°
2026-04-20 17:53 52.37561 8.43814 7178 ft 150 kts 34°
2026-04-20 17:53 52.38486 8.44625 7177 ft 151 kts 34°
2026-04-20 17:54 52.39411 8.45436 7181 ft 151 kts 34°
2026-04-20 17:54 52.40336 8.46246 7206 ft 149 kts 34°
2026-04-20 17:54 52.41230 8.47026 7326 ft 143 kts 33°
2026-04-20 17:54 52.42097 8.47785 7453 ft 140 kts 34°
2026-04-20 17:55 52.42946 8.48530 7579 ft 138 kts 33°
2026-04-20 17:55 52.43788 8.49270 7707 ft 137 kts 33°
2026-04-20 17:55 52.44628 8.50007 7835 ft 136 kts 33°
2026-04-20 17:55 52.45458 8.50736 7961 ft 136 kts 33°
2026-04-20 17:56 52.46292 8.51470 8088 ft 136 kts 32°
2026-04-20 17:56 52.46845 8.51956 8172 ft 136 kts 32°
2026-04-20 17:56 52.47701 8.52712 8178 ft 143 kts 33°
2026-04-20 17:56 52.48594 8.53498 8180 ft 147 kts 32°
2026-04-20 17:57 52.49502 8.54298 8181 ft 149 kts 32°
2026-04-20 17:57 52.50422 8.55109 8182 ft 150 kts 32°
2026-04-20 17:57 52.51347 8.55922 8194 ft 151 kts 32°
2026-04-20 17:57 52.52273 8.56740 8196 ft 151 kts 32°
2026-04-20 17:58 52.53168 8.57527 8375 ft 142 kts 32°
2026-04-20 17:58 52.54021 8.58276 8556 ft 137 kts 32°
2026-04-20 17:58 52.54848 8.59006 8740 ft 133 kts 32°
2026-04-20 17:58 52.55658 8.59722 8921 ft 131 kts 32°
2026-04-20 17:59 52.56431 8.60496 9110 ft 129 kts 45°
2026-04-20 17:59 52.56953 8.61636 9301 ft 126 kts 65°
2026-04-20 17:59 52.57166 8.63026 9496 ft 126 kts 83°
2026-04-20 17:59 52.57273 8.64460 9670 ft 127 kts 81°
2026-04-20 18:00 52.57389 8.65965 9672 ft 137 kts 82°
2026-04-20 18:00 52.57509 8.67557 9674 ft 143 kts 82°
2026-04-20 18:00 52.57633 8.69198 9675 ft 146 kts 82°
2026-04-20 18:00 52.57759 8.70865 9676 ft 148 kts 82°
2026-04-20 18:01 52.57885 8.72548 9680 ft 149 kts 82°
2026-04-20 18:01 52.58013 8.74242 9681 ft 150 kts 82°
2026-04-20 18:01 52.58142 8.75944 9681 ft 150 kts 82°
2026-04-20 18:01 52.58269 8.77646 9681 ft 150 kts 82°
2026-04-20 18:02 52.58397 8.79353 9681 ft 150 kts 82°
2026-04-20 18:02 52.58525 8.81061 9681 ft 150 kts 82°
2026-04-20 18:02 52.58653 8.82764 9673 ft 150 kts 82°
2026-04-20 18:02 52.58779 8.84466 9674 ft 150 kts 82°
2026-04-20 18:03 52.58905 8.86168 9674 ft 150 kts 82°
2026-04-20 18:03 52.59032 8.87871 9674 ft 150 kts 82°
2026-04-20 18:03 52.59161 8.89604 9677 ft 155 kts 82°
2026-04-20 18:03 52.59292 8.91378 9682 ft 157 kts 82°
2026-04-20 18:04 52.59424 8.93175 9682 ft 159 kts 82°
2026-04-20 18:04 52.59557 8.94978 9680 ft 160 kts 82°
2026-04-20 18:04 52.59690 8.96796 9680 ft 160 kts 82°
2026-04-20 18:04 52.59824 8.98614 9679 ft 160 kts 82°
2026-04-20 18:05 52.60089 9.02253 9679 ft 160 kts 82°
2026-04-20 18:05 52.60222 9.04075 9671 ft 160 kts 82°
2026-04-20 18:05 52.60355 9.05900 9670 ft 160 kts 82°
2026-04-20 18:06 52.60485 9.07696 9667 ft 160 kts 82°
2026-04-20 18:06 52.60616 9.09513 9667 ft 160 kts 82°
2026-04-20 18:06 52.60747 9.11327 9667 ft 160 kts 82°
2026-04-20 18:06 52.60878 9.13139 9667 ft 160 kts 82°
2026-04-20 18:07 52.61009 9.14955 9669 ft 160 kts 82°
2026-04-20 18:07 52.61139 9.16771 9668 ft 160 kts 82°
2026-04-20 18:07 52.61265 9.18536 9669 ft 160 kts 82°
2026-04-20 18:07 52.61395 9.20348 9668 ft 160 kts 82°
2026-04-20 18:08 52.61524 9.22165 9667 ft 160 kts 82°
2026-04-20 18:08 52.61653 9.23977 9659 ft 160 kts 82°
2026-04-20 18:08 52.61782 9.25793 9659 ft 159 kts 82°
2026-04-20 18:08 52.61910 9.27608 9659 ft 160 kts 82°
2026-04-20 18:09 52.62039 9.29426 9662 ft 160 kts 82°
2026-04-20 18:09 52.62165 9.31215 9661 ft 160 kts 82°
2026-04-20 18:09 52.62292 9.33032 9661 ft 160 kts 82°
2026-04-20 18:09 52.62420 9.34845 9662 ft 159 kts 82°
2026-04-20 18:10 52.62524 9.36662 9667 ft 160 kts 89°
2026-04-20 18:10 52.62308 9.38465 9686 ft 163 kts 107°
2026-04-20 18:10 52.61904 9.40214 9685 ft 164 kts 107°
2026-04-20 18:10 52.61505 9.41965 9686 ft 163 kts 107°
2026-04-20 18:11 52.61106 9.43722 9686 ft 163 kts 107°
2026-04-20 18:11 52.60708 9.45475 9637 ft 166 kts 107°
2026-04-20 18:11 52.60292 9.47302 9424 ft 173 kts 108°
2026-04-20 18:11 52.59862 9.49180 9210 ft 177 kts 108°
2026-04-20 18:12 52.59427 9.51081 8994 ft 178 kts 108°
2026-04-20 18:12 52.58990 9.52989 8783 ft 178 kts 108°
2026-04-20 18:12 52.58559 9.54875 8575 ft 178 kts 108°
2026-04-20 18:12 52.58123 9.56783 8367 ft 178 kts 108°
2026-04-20 18:13 52.57681 9.58708 8156 ft 177 kts 108°
2026-04-20 18:13 52.57248 9.60598 7949 ft 177 kts 108°
2026-04-20 18:13 52.56819 9.62464 7746 ft 176 kts 109°
2026-04-20 18:13 52.56387 9.64348 7546 ft 176 kts 109°
2026-04-20 18:14 52.55955 9.66226 7338 ft 176 kts 109°
2026-04-20 18:14 52.55524 9.68102 7136 ft 175 kts 109°
2026-04-20 18:14 52.55092 9.69975 6936 ft 175 kts 109°
2026-04-20 18:14 52.54662 9.71842 6732 ft 174 kts 109°
2026-04-20 18:15 52.54307 9.73731 6526 ft 172 kts 98°
2026-04-20 18:15 52.54241 9.75674 6308 ft 169 kts 92°
2026-04-20 18:15 52.54188 9.77592 6067 ft 169 kts 92°
2026-04-20 18:15 52.54131 9.79520 5804 ft 169 kts 92°
2026-04-20 18:16 52.54075 9.81449 5546 ft 168 kts 92°
2026-04-20 18:16 52.54020 9.83371 5288 ft 168 kts 91°
2026-04-20 18:16 52.53965 9.85284 5033 ft 168 kts 91°
2026-04-20 18:16 52.53909 9.87198 4770 ft 167 kts 91°
2026-04-20 18:17 52.53852 9.89103 4505 ft 167 kts 91°
2026-04-20 18:17 52.53796 9.91002 4243 ft 166 kts 91°
2026-04-20 18:17 52.53741 9.92864 3985 ft 165 kts 91°
2026-04-20 18:17 52.53685 9.94739 3727 ft 164 kts 90°
2026-04-20 18:18 52.53629 9.96604 3471 ft 163 kts 90°
2026-04-20 18:18 52.53574 9.98371 3203 ft 148 kts 89°
2026-04-20 18:18 52.53523 10.00003 3006 ft 136 kts 89°
2026-04-20 18:18 52.53479 10.01470 3003 ft 123 kts 89°
2026-04-20 18:19 52.53439 10.02821 2997 ft 114 kts 88°
2026-04-20 18:19 52.53402 10.04101 2995 ft 110 kts 88°
2026-04-20 18:19 52.53364 10.05339 2993 ft 107 kts 87°
2026-04-20 18:19 52.53328 10.06552 2992 ft 106 kts 88°
2026-04-20 18:20 52.53209 10.07728 3006 ft 111 kts 116°
2026-04-20 18:20 52.52465 10.08250 3011 ft 134 kts 181°
2026-04-20 18:20 52.51542 10.07617 3007 ft 151 kts 204°
2026-04-20 18:20 52.50581 10.06810 3010 ft 157 kts 204°
2026-04-20 18:21 52.49595 10.05984 3007 ft 161 kts 204°
2026-04-20 18:21 52.48590 10.05144 3008 ft 163 kts 204°
2026-04-20 18:21 52.47577 10.04295 3008 ft 164 kts 204°
2026-04-20 18:21 52.46563 10.03447 3007 ft 164 kts 204°
2026-04-20 18:22 52.45547 10.02599 3006 ft 164 kts 204°
2026-04-20 18:22 52.44546 10.01759 3006 ft 164 kts 204°
2026-04-20 18:22 52.43676 10.00578 3008 ft 167 kts 241°
2026-04-20 18:22 52.43338 9.98809 3001 ft 156 kts 278°
2026-04-20 18:23 52.43712 9.97335 3002 ft 134 kts 313°
2026-04-20 18:23 52.44222 9.96115 2994 ft 126 kts 314°
2026-04-20 18:23 52.44703 9.94934 2991 ft 123 kts 313°
2026-04-20 18:23 52.44901 9.93549 2938 ft 134 kts 273°
2026-04-20 18:24 52.44901 9.91979 2776 ft 141 kts 278°
2026-04-20 18:24 52.44928 9.90334 2579 ft 147 kts 278°
2026-04-20 18:24 52.44962 9.88637 2373 ft 151 kts 279°
2026-04-20 18:24 52.45008 9.86904 2160 ft 152 kts 279°
2026-04-20 18:25 52.45054 9.85171 1951 ft 152 kts 279°
2026-04-20 18:25 52.45100 9.83446 1739 ft 151 kts 279°
2026-04-20 18:25 52.45139 9.81739 1525 ft 149 kts 278°
2026-04-20 18:25 52.45183 9.80067 1322 ft 140 kts 278°
2026-04-20 18:26 52.45221 9.78550 1136 ft 127 kts 277°
2026-04-20 18:26 52.45241 9.77248 978 ft 102 kts 275°
2026-04-20 18:26 52.45255 9.76225 871 ft 85 kts 274°
2026-04-20 18:26 52.45281 9.75204 762 ft 96 kts 277°
2026-04-20 18:27 52.45333 9.74086 612 ft 97 kts 272°
2026-04-20 18:27 52.45351 9.73005 489 ft 93 kts 273°
2026-04-20 18:27 52.45382 9.71965 332 ft 92 kts 274°
2026-04-20 18:27 52.45409 9.70949 200 ft 86 kts 274°
2026-04-20 18:28 52.45434 9.70116 180 ft 51 kts 271°
2026-04-20 18:28 52.45449 9.69618 183 ft 44 kts 274°
2026-04-20 18:28 52.45460 9.69180 183 ft 23 kts 276°
2026-04-20 18:28 52.45556 9.69139 178 ft 18 kts
2026-04-20 18:29 52.45584 9.69140 177 ft 0 kts 359°
2026-04-20 18:29 52.45602 9.69139 177 ft 5 kts 359°
2026-04-20 18:30 52.45682 9.69144 177 ft 17 kts
2026-04-20 18:30 52.45764 9.69190 177 ft 12 kts 32°
2026-04-20 18:30 52.45839 9.69169 177 ft 12 kts 322°
2026-04-20 18:30 52.45907 9.69083 177 ft 12 kts 322°
2026-04-20 18:31 52.45977 9.68996 177 ft 12 kts 324°
2026-04-20 18:31 52.46045 9.68911 177 ft 12 kts 323°
2026-04-20 18:31 52.46112 9.68828 177 ft 12 kts 323°
2026-04-20 18:31 52.46181 9.68743 177 ft 12 kts 328°
2026-04-20 18:32 52.46255 9.68788 177 ft 14 kts 68°
2026-04-20 18:32 52.46294 9.68948 177 ft 16 kts 67°
2026-04-20 18:32 52.46337 9.69126 177 ft 17 kts 71°
2026-04-20 18:32 52.46343 9.69276 177 ft 13 kts 162°
2026-04-20 18:33 52.46290 9.69316 177 ft 7 kts 91°
2026-04-20 18:33 52.46310 9.69399 177 ft 7 kts 33°
2026-04-20 18:33 52.46337 9.69364 177 ft 5 kts 251°
2026-04-20 18:33 52.46337 9.69362 177 ft 0 kts 252°